FFT5820 KIAH-KGPI

Flight info

Callsign FFT5820
Flight time 3h 34m
Altitude 34000
Route STYCK8 DOLEY MRMAC ROLLS 37N102W QUAIL
Aircraft A321/M-VGDW/C

Departure

Time 2026-04-23 20:03
Airport George Bush Intercontinental Airport (KIAH)

Arrival

Time 2026-04-23 23:38
Airport Glacier Park International Airport (KGPI)
Time Latitude Longitude Altitude Speed Heading
2026-04-23 19:54 29.99088 -95.34512 105 ft 14 kts 270°
2026-04-23 19:54 29.99089 -95.34616 107 ft 12 kts 270°
2026-04-23 19:54 29.99086 -95.34719 107 ft 16 kts 269°
2026-04-23 19:54 29.99085 -95.34849 106 ft 16 kts 273°
2026-04-23 19:55 29.99090 -95.34979 107 ft 18 kts 270°
2026-04-23 19:55 29.99092 -95.35115 107 ft 16 kts 270°
2026-04-23 19:55 29.99092 -95.35239 107 ft 15 kts 270°
2026-04-23 19:55 29.99092 -95.35352 107 ft 13 kts 270°
2026-04-23 19:56 29.99085 -95.35451 107 ft 12 kts 247°
2026-04-23 19:56 29.99047 -95.35479 107 ft 0 kts 198°
2026-04-23 19:56 29.99000 -95.35485 107 ft 13 kts 183°
2026-04-23 19:57 29.98929 -95.35543 106 ft 13 kts 252°
2026-04-23 19:57 29.98907 -95.35635 107 ft 11 kts 250°
2026-04-23 19:57 29.98877 -95.35698 107 ft 0 kts 198°
2026-04-23 20:01 29.98838 -95.35712 108 ft 10 kts 197°
2026-04-23 20:02 29.98793 -95.35756 107 ft 7 kts 227°
2026-04-23 20:02 29.98754 -95.35760 109 ft 5 kts 171°
2026-04-23 20:02 29.98721 -95.35745 108 ft 7 kts 155°
2026-04-23 20:02 29.98545 -95.35638 108 ft 61 kts 152°
2026-04-23 20:03 29.97984 -95.35296 109 ft 118 kts 152°
2026-04-23 20:03 29.97115 -95.34766 107 ft 162 kts 153°
2026-04-23 20:03 29.96063 -95.34135 462 ft 172 kts 152°
2026-04-23 20:03 29.95025 -95.33461 1070 ft 171 kts 148°
2026-04-23 20:04 29.93915 -95.32984 1635 ft 175 kts 176°
2026-04-23 20:04 29.92694 -95.33415 1898 ft 200 kts 213°
2026-04-23 20:04 29.91825 -95.34766 2049 ft 226 kts 247°
2026-04-23 20:04 29.91714 -95.36675 2170 ft 258 kts 280°
2026-04-23 20:05 29.92508 -95.38611 2559 ft 277 kts 307°
2026-04-23 20:05 29.93874 -95.40195 3253 ft 280 kts 317°
2026-04-23 20:05 29.95418 -95.41578 3994 ft 284 kts 332°
2026-04-23 20:05 29.97266 -95.42399 4726 ft 286 kts 344°
2026-04-23 20:06 29.99199 -95.42973 5462 ft 288 kts 346°
2026-04-23 20:06 30.01157 -95.43508 6184 ft 290 kts 346°
2026-04-23 20:06 30.03108 -95.44024 6860 ft 293 kts 346°
2026-04-23 20:06 30.05100 -95.44545 7523 ft 295 kts 346°
2026-04-23 20:07 30.07117 -95.45071 8163 ft 298 kts 346°
2026-04-23 20:07 30.09146 -95.45604 8779 ft 300 kts 346°
2026-04-23 20:07 30.11188 -95.46146 9383 ft 302 kts 346°
2026-04-23 20:07 30.13245 -95.46692 10007 ft 303 kts 346°
2026-04-23 20:08 30.15343 -95.47252 10292 ft 319 kts 346°
2026-04-23 20:08 30.17567 -95.47846 10433 ft 337 kts 346°
2026-04-23 20:08 30.19912 -95.48473 10554 ft 354 kts 346°
2026-04-23 20:08 30.22358 -95.49125 10864 ft 365 kts 346°
2026-04-23 20:09 30.24843 -95.49788 11419 ft 367 kts 346°
2026-04-23 20:09 30.27316 -95.50516 12057 ft 367 kts 340°
2026-04-23 20:09 30.29655 -95.51685 12714 ft 366 kts 333°
2026-04-23 20:09 30.31944 -95.52984 13330 ft 367 kts 333°
2026-04-23 20:10 30.33469 -95.53848 13700 ft 369 kts 333°
2026-04-23 20:10 30.36572 -95.55601 14435 ft 373 kts 333°
2026-04-23 20:10 30.38916 -95.56922 14945 ft 376 kts 333°
2026-04-23 20:10 30.41273 -95.58248 15464 ft 378 kts 333°
2026-04-23 20:11 30.43648 -95.59588 15967 ft 381 kts 332°
2026-04-23 20:11 30.46033 -95.60940 16450 ft 383 kts 332°
2026-04-23 20:11 30.48436 -95.62305 16937 ft 385 kts 332°
2026-04-23 20:11 30.50823 -95.63660 17391 ft 388 kts 332°
2026-04-23 20:12 30.53254 -95.65040 17836 ft 390 kts 332°
2026-04-23 20:12 30.55710 -95.66410 18286 ft 393 kts 333°
2026-04-23 20:12 30.58196 -95.67751 18702 ft 395 kts 333°
2026-04-23 20:12 30.60708 -95.69081 19148 ft 398 kts 333°
2026-04-23 20:13 30.63234 -95.70411 19580 ft 400 kts 333°
2026-04-23 20:13 30.65775 -95.71748 19979 ft 402 kts 333°
2026-04-23 20:13 30.68330 -95.73098 20362 ft 404 kts 333°
2026-04-23 20:13 30.70897 -95.74461 20751 ft 407 kts 333°
2026-04-23 20:14 30.73475 -95.75836 21139 ft 409 kts 333°
2026-04-23 20:14 30.76065 -95.77225 21513 ft 411 kts 333°
2026-04-23 20:14 30.78667 -95.78626 21871 ft 413 kts 333°
2026-04-23 20:14 30.81281 -95.80035 22220 ft 416 kts 333°
2026-04-23 20:15 30.83914 -95.81454 22585 ft 418 kts 333°
2026-04-23 20:15 30.86555 -95.82876 22939 ft 420 kts 333°
2026-04-23 20:15 30.89216 -95.84307 23265 ft 422 kts 333°
2026-04-23 20:15 30.91885 -95.85743 23602 ft 424 kts 333°
2026-04-23 20:16 30.94571 -95.87187 23929 ft 426 kts 333°
2026-04-23 20:16 30.97267 -95.88637 24243 ft 428 kts 333°
2026-04-23 20:16 30.99979 -95.90095 24549 ft 430 kts 333°
2026-04-23 20:16 31.02664 -95.91539 24869 ft 431 kts 333°
2026-04-23 20:17 31.05394 -95.93009 25182 ft 433 kts 332°
2026-04-23 20:17 31.08134 -95.94488 25500 ft 434 kts 332°
2026-04-23 20:17 31.10878 -95.95971 25812 ft 436 kts 332°
2026-04-23 20:17 31.13692 -95.97308 26094 ft 439 kts 338°
2026-04-23 20:18 31.16601 -95.98436 26370 ft 441 kts 338°
2026-04-23 20:18 31.19517 -95.99562 26651 ft 442 kts 338°
2026-04-23 20:18 31.22445 -96.00693 26919 ft 444 kts 338°
2026-04-23 20:18 31.25379 -96.01828 27195 ft 445 kts 338°
2026-04-23 20:19 31.28323 -96.02967 27470 ft 446 kts 338°
2026-04-23 20:19 31.31178 -96.04071 27722 ft 447 kts 338°
2026-04-23 20:19 31.32606 -96.04623 27861 ft 448 kts 338°
2026-04-23 20:20 31.35571 -96.05770 28128 ft 449 kts 338°
2026-04-23 20:20 31.38538 -96.06922 28387 ft 450 kts 338°
2026-04-23 20:20 31.41515 -96.08080 28708 ft 449 kts 337°
2026-04-23 20:20 31.44472 -96.09232 29052 ft 448 kts 337°
2026-04-23 20:21 31.47422 -96.10381 29404 ft 446 kts 337°
2026-04-23 20:21 31.50361 -96.11525 29740 ft 444 kts 337°
2026-04-23 20:21 31.53290 -96.12666 30075 ft 443 kts 337°
2026-04-23 20:21 31.56206 -96.13807 30409 ft 441 kts 337°
2026-04-23 20:22 31.59111 -96.14943 30723 ft 440 kts 337°
2026-04-23 20:22 31.62012 -96.16076 31032 ft 439 kts 336°
2026-04-23 20:22 31.64745 -96.17145 31326 ft 437 kts 337°
2026-04-23 20:22 31.67631 -96.18276 31607 ft 437 kts 337°
2026-04-23 20:23 31.70513 -96.19404 31899 ft 436 kts 337°
2026-04-23 20:23 31.73390 -96.20533 32179 ft 435 kts 337°
2026-04-23 20:23 31.76264 -96.21661 32463 ft 434 kts 336°
2026-04-23 20:23 31.79128 -96.22786 32743 ft 433 kts 336°
2026-04-23 20:24 31.81988 -96.23909 33009 ft 433 kts 336°
2026-04-23 20:24 31.84842 -96.25029 33271 ft 432 kts 336°
2026-04-23 20:24 31.87698 -96.26150 33533 ft 432 kts 336°
2026-04-23 20:24 31.89421 -96.26827 33692 ft 431 kts 336°
2026-04-23 20:25 31.91626 -96.27694 33851 ft 431 kts 336°
2026-04-23 20:25 31.94499 -96.28824 33912 ft 428 kts 336°
2026-04-23 20:26 32.00087 -96.31033 33916 ft 426 kts 336°
2026-04-23 20:26 32.05709 -96.33254 33916 ft 426 kts 336°
2026-04-23 20:27 32.11335 -96.35470 33915 ft 426 kts 336°
2026-04-23 20:27 32.16961 -96.37700 33915 ft 426 kts 336°
2026-04-23 20:28 32.22020 -96.40407 33914 ft 420 kts 327°
2026-04-23 20:28 32.27173 -96.43660 33910 ft 420 kts 327°
2026-04-23 20:29 32.32325 -96.46914 33907 ft 420 kts 327°
2026-04-23 20:29 32.37484 -96.50169 33898 ft 420 kts 327°
2026-04-23 20:30 32.42644 -96.53421 33896 ft 420 kts 327°
2026-04-23 20:30 32.50347 -96.58289 33892 ft 421 kts 327°
2026-04-23 20:31 32.55511 -96.61567 33888 ft 421 kts 327°
2026-04-23 20:31 32.60677 -96.64843 33885 ft 421 kts 327°
2026-04-23 20:32 32.65842 -96.68115 33887 ft 421 kts 327°
2026-04-23 20:32 32.71013 -96.71402 33883 ft 422 kts 327°
2026-04-23 20:33 32.76184 -96.74703 33884 ft 422 kts 327°
2026-04-23 20:33 32.81353 -96.78000 33882 ft 422 kts 327°
2026-04-23 20:34 32.85654 -96.80744 33878 ft 422 kts 327°
2026-04-23 20:34 32.90829 -96.84053 33879 ft 422 kts 327°
2026-04-23 20:35 32.96006 -96.87367 33874 ft 423 kts 327°
2026-04-23 20:35 33.01190 -96.90689 33876 ft 423 kts 327°
2026-04-23 20:36 33.06378 -96.94021 33875 ft 424 kts 327°
2026-04-23 20:36 33.11572 -96.97357 33874 ft 424 kts 327°
2026-04-23 20:37 33.16768 -97.00708 33874 ft 425 kts 326°
2026-04-23 20:37 33.21965 -97.04062 33872 ft 425 kts 326°
2026-04-23 20:38 33.27135 -97.07395 33865 ft 425 kts 326°
2026-04-23 20:38 33.32340 -97.10762 33866 ft 426 kts 326°
2026-04-23 20:39 33.37543 -97.14127 33867 ft 425 kts 326°
2026-04-23 20:39 33.42752 -97.17498 33867 ft 426 kts 327°
2026-04-23 20:40 33.47968 -97.20873 33859 ft 426 kts 326°
2026-04-23 20:40 33.53180 -97.24261 33853 ft 427 kts 326°
2026-04-23 20:41 33.58395 -97.27663 33853 ft 427 kts 326°
2026-04-23 20:41 33.63615 -97.31062 33854 ft 427 kts 326°
2026-04-23 20:42 33.68830 -97.34468 33854 ft 427 kts 326°
2026-04-23 20:42 33.74054 -97.37886 34010 ft 429 kts 326°
2026-04-23 20:43 33.76675 -97.39603 34240 ft 429 kts 326°
2026-04-23 20:43 33.79293 -97.41316 34469 ft 429 kts 326°
2026-04-23 20:43 33.81916 -97.43035 34706 ft 429 kts 326°
2026-04-23 20:43 33.84539 -97.44751 34940 ft 428 kts 326°
2026-04-23 20:44 33.87153 -97.46460 35163 ft 428 kts 326°
2026-04-23 20:44 33.89769 -97.48172 35388 ft 427 kts 326°
2026-04-23 20:44 33.92232 -97.49790 35593 ft 427 kts 326°
2026-04-23 20:44 33.94836 -97.51505 35780 ft 426 kts 326°
2026-04-23 20:45 34.00032 -97.54936 35823 ft 426 kts 326°
2026-04-23 20:45 34.05229 -97.58367 35823 ft 426 kts 326°
2026-04-23 20:46 34.10435 -97.61795 35821 ft 426 kts 327°
2026-04-23 20:46 34.15645 -97.65223 35812 ft 426 kts 326°
2026-04-23 20:47 34.20846 -97.68672 35811 ft 427 kts 326°
2026-04-23 20:47 34.26023 -97.72109 35811 ft 427 kts 326°
2026-04-23 20:48 34.31234 -97.75565 35809 ft 427 kts 326°
2026-04-23 20:48 34.36443 -97.79024 35806 ft 427 kts 326°
2026-04-23 20:49 34.41658 -97.82495 35803 ft 427 kts 326°
2026-04-23 20:49 34.46868 -97.85964 35796 ft 427 kts 326°
2026-04-23 20:50 34.52077 -97.89444 35795 ft 428 kts 326°
2026-04-23 20:50 34.57296 -97.92931 35790 ft 428 kts 326°
2026-04-23 20:51 34.62481 -97.96396 35793 ft 429 kts 326°
2026-04-23 20:51 34.67705 -97.99895 35781 ft 429 kts 326°
2026-04-23 20:52 34.72930 -98.03404 35771 ft 429 kts 326°
2026-04-23 20:52 34.78150 -98.06916 35760 ft 428 kts 326°
2026-04-23 20:53 34.83246 -98.10609 35756 ft 422 kts 317°
2026-04-23 20:53 34.87261 -98.15684 35750 ft 415 kts 305°
2026-04-23 20:54 34.90861 -98.21181 35745 ft 415 kts 306°
2026-04-23 20:54 34.94459 -98.26639 35738 ft 416 kts 306°
2026-04-23 20:55 34.98083 -98.32136 35736 ft 416 kts 306°
2026-04-23 20:55 35.01708 -98.37652 35736 ft 417 kts 306°
2026-04-23 20:56 35.05327 -98.43177 35735 ft 417 kts 305°
2026-04-23 20:56 35.08946 -98.48718 35729 ft 418 kts 305°
2026-04-23 20:57 35.12563 -98.54268 35723 ft 417 kts 305°
2026-04-23 20:57 35.16172 -98.59812 35712 ft 417 kts 305°
2026-04-23 20:58 35.19785 -98.65355 35709 ft 417 kts 305°
2026-04-23 20:58 35.23389 -98.70909 35701 ft 416 kts 305°
2026-04-23 20:59 35.26990 -98.76461 35697 ft 416 kts 305°
2026-04-23 20:59 35.30589 -98.82016 35696 ft 417 kts 305°
2026-04-23 21:00 35.34184 -98.87582 35695 ft 417 kts 305°
2026-04-23 21:00 35.37786 -98.93154 35695 ft 417 kts 305°
2026-04-23 21:01 35.41347 -98.98690 35696 ft 416 kts 305°
2026-04-23 21:01 35.44929 -99.04259 35693 ft 415 kts 305°
2026-04-23 21:02 35.48505 -99.09822 35691 ft 415 kts 305°
2026-04-23 21:02 35.52078 -99.15392 35691 ft 415 kts 305°
2026-04-23 21:03 35.55643 -99.20961 35691 ft 415 kts 305°
2026-04-23 21:03 35.59202 -99.26537 35691 ft 415 kts 304°
2026-04-23 21:04 35.62765 -99.32116 35688 ft 415 kts 304°
2026-04-23 21:04 35.66322 -99.37696 35683 ft 414 kts 304°
2026-04-23 21:05 35.69874 -99.43286 35681 ft 415 kts 304°
2026-04-23 21:05 35.73266 -99.48951 35683 ft 412 kts 300°
2026-04-23 21:06 35.76369 -99.54889 35684 ft 412 kts 300°
2026-04-23 21:06 35.79475 -99.60825 35686 ft 412 kts 300°
2026-04-23 21:07 35.82577 -99.66768 35689 ft 412 kts 300°
2026-04-23 21:07 35.85673 -99.72725 35691 ft 412 kts 299°
2026-04-23 21:08 35.88763 -99.78682 35693 ft 412 kts 299°
2026-04-23 21:08 35.91865 -99.84647 35695 ft 413 kts 299°
2026-04-23 21:09 35.94962 -99.90629 35699 ft 413 kts 299°
2026-04-23 21:09 35.98048 -99.96614 35702 ft 413 kts 298°
2026-04-23 21:10 36.01101 -100.02527 35714 ft 410 kts 298°
2026-04-23 21:10 36.04156 -100.08458 35711 ft 407 kts 298°
2026-04-23 21:11 36.07188 -100.14352 35709 ft 406 kts 298°
2026-04-23 21:11 36.10212 -100.20241 35706 ft 405 kts 298°
2026-04-23 21:12 36.13224 -100.26113 35704 ft 404 kts 297°
2026-04-23 21:12 36.16228 -100.31989 35710 ft 404 kts 297°
2026-04-23 21:13 36.19224 -100.37866 35709 ft 403 kts 297°
2026-04-23 21:13 36.22217 -100.43734 35711 ft 403 kts 297°
2026-04-23 21:14 36.25184 -100.49561 35719 ft 402 kts 297°
2026-04-23 21:14 36.28160 -100.55422 35727 ft 401 kts 297°
2026-04-23 21:15 36.31126 -100.61272 35731 ft 400 kts 297°
2026-04-23 21:15 36.34082 -100.67111 35738 ft 399 kts 296°
2026-04-23 21:16 36.37032 -100.72945 35743 ft 399 kts 296°
2026-04-23 21:16 36.39977 -100.78769 35746 ft 398 kts 296°
2026-04-23 21:17 36.42909 -100.84581 35748 ft 397 kts 296°
2026-04-23 21:17 36.45827 -100.90388 35749 ft 396 kts 296°
2026-04-23 21:18 36.48730 -100.96189 35751 ft 395 kts 296°
2026-04-23 21:18 36.51634 -101.01984 35749 ft 394 kts 296°
2026-04-23 21:19 36.54514 -101.07728 35751 ft 394 kts 296°
2026-04-23 21:19 36.57409 -101.13514 35752 ft 393 kts 295°
2026-04-23 21:20 36.60292 -101.19298 35757 ft 392 kts 295°
2026-04-23 21:20 36.63156 -101.25066 35758 ft 391 kts 295°
2026-04-23 21:21 36.66016 -101.30826 35754 ft 391 kts 295°
2026-04-23 21:21 36.68875 -101.36577 35750 ft 390 kts 295°
2026-04-23 21:22 36.71714 -101.42320 35748 ft 389 kts 295°
2026-04-23 21:22 36.74556 -101.48061 35748 ft 389 kts 295°
2026-04-23 21:23 36.77380 -101.53801 35746 ft 388 kts 295°
2026-04-23 21:23 36.80214 -101.59541 35747 ft 388 kts 295°
2026-04-23 21:24 36.82563 -101.64311 35749 ft 388 kts 295°
2026-04-23 21:24 36.85384 -101.70047 35750 ft 388 kts 295°
2026-04-23 21:25 36.88192 -101.75784 35758 ft 387 kts 294°
2026-04-23 21:25 36.90996 -101.81521 35766 ft 387 kts 294°
2026-04-23 21:26 36.93803 -101.87258 35768 ft 387 kts 294°
2026-04-23 21:26 36.96603 -101.93001 35780 ft 387 kts 294°
2026-04-23 21:27 36.99492 -101.98686 35786 ft 392 kts 301°
2026-04-23 21:27 37.01391 -102.01194 35786 ft 404 kts 310°
2026-04-23 21:27 37.03661 -102.03330 35787 ft 410 kts 314°
2026-04-23 21:28 37.08262 -102.07460 35793 ft 409 kts 314°
2026-04-23 21:28 37.12867 -102.11636 35790 ft 408 kts 313°
2026-04-23 21:29 37.17461 -102.15818 35781 ft 408 kts 313°
2026-04-23 21:29 37.22054 -102.20006 35782 ft 408 kts 313°
2026-04-23 21:30 37.26655 -102.24200 35773 ft 409 kts 313°
2026-04-23 21:30 37.31257 -102.28392 35783 ft 409 kts 313°
2026-04-23 21:31 37.35853 -102.32596 35786 ft 408 kts 313°
2026-04-23 21:31 37.40444 -102.36808 35779 ft 409 kts 313°
2026-04-23 21:32 37.45041 -102.41021 35779 ft 409 kts 313°
2026-04-23 21:32 37.49642 -102.45239 35788 ft 409 kts 313°
2026-04-23 21:33 37.54206 -102.49432 35784 ft 409 kts 313°
2026-04-23 21:33 37.58796 -102.53662 35789 ft 409 kts 313°
2026-04-23 21:34 37.63381 -102.57900 35790 ft 408 kts 313°
2026-04-23 21:34 37.67963 -102.62137 35788 ft 408 kts 313°
2026-04-23 21:35 37.72545 -102.66368 35784 ft 408 kts 313°
2026-04-23 21:35 37.77123 -102.70607 35781 ft 408 kts 312°
2026-04-23 21:36 37.83979 -102.76989 35773 ft 407 kts 312°
2026-04-23 21:37 37.88550 -102.81249 35769 ft 408 kts 312°
2026-04-23 21:37 37.93121 -102.85506 35763 ft 408 kts 312°
2026-04-23 21:38 37.97688 -102.89764 35766 ft 407 kts 312°
2026-04-23 21:38 38.02214 -102.93996 35754 ft 407 kts 312°
2026-04-23 21:39 38.06777 -102.98270 35739 ft 409 kts 312°
2026-04-23 21:39 38.11362 -103.02570 35737 ft 410 kts 313°
2026-04-23 21:40 38.15955 -103.06882 35739 ft 411 kts 313°
2026-04-23 21:40 38.20550 -103.11205 35743 ft 411 kts 312°
2026-04-23 21:41 38.25139 -103.15535 35745 ft 411 kts 313°
2026-04-23 21:41 38.29737 -103.19874 35747 ft 411 kts 312°
2026-04-23 21:42 38.34331 -103.24218 35750 ft 411 kts 312°
2026-04-23 21:42 38.38922 -103.28562 35757 ft 411 kts 312°
2026-04-23 21:43 38.43518 -103.32915 35759 ft 411 kts 312°
2026-04-23 21:43 38.48100 -103.37279 35764 ft 411 kts 312°
2026-04-23 21:44 38.52656 -103.41626 35767 ft 412 kts 312°
2026-04-23 21:44 38.57245 -103.45998 35769 ft 411 kts 313°
2026-04-23 21:45 38.61840 -103.50379 35780 ft 412 kts 313°
2026-04-23 21:45 38.66427 -103.54766 35787 ft 412 kts 313°
2026-04-23 21:46 38.71015 -103.59167 35791 ft 412 kts 313°
2026-04-23 21:46 38.75601 -103.63569 35797 ft 412 kts 313°
2026-04-23 21:47 38.80154 -103.67951 35801 ft 413 kts 313°
2026-04-23 21:47 38.84753 -103.72379 35810 ft 413 kts 313°
2026-04-23 21:48 38.89352 -103.76807 35820 ft 414 kts 313°
2026-04-23 21:48 38.93960 -103.81257 35827 ft 415 kts 313°
2026-04-23 21:49 38.98571 -103.85723 35835 ft 416 kts 314°
2026-04-23 21:49 39.03200 -103.90203 35837 ft 417 kts 314°
2026-04-23 21:50 39.07839 -103.94699 35847 ft 418 kts 314°
2026-04-23 21:50 39.12480 -103.99216 35848 ft 419 kts 314°
2026-04-23 21:51 39.17135 -104.03754 35857 ft 420 kts 315°
2026-04-23 21:51 39.21764 -104.08277 35855 ft 420 kts 315°
2026-04-23 21:52 39.26422 -104.12841 35857 ft 420 kts 315°
2026-04-23 21:52 39.31001 -104.17527 35858 ft 420 kts 314°
2026-04-23 21:53 39.35526 -104.22310 35862 ft 420 kts 314°
2026-04-23 21:53 39.40062 -104.27105 35877 ft 422 kts 314°
2026-04-23 21:54 39.44623 -104.31891 35859 ft 423 kts 314°
2026-04-23 21:54 39.49197 -104.36692 35872 ft 423 kts 314°
2026-04-23 21:55 39.53770 -104.41504 35880 ft 424 kts 315°
2026-04-23 21:55 39.58357 -104.46335 35883 ft 425 kts 315°
2026-04-23 21:56 39.62952 -104.51171 35879 ft 425 kts 315°
2026-04-23 21:56 39.67537 -104.56028 35879 ft 425 kts 315°
2026-04-23 21:57 39.72115 -104.60885 35880 ft 425 kts 315°
2026-04-23 21:57 39.76665 -104.65716 35881 ft 425 kts 315°
2026-04-23 21:58 39.81247 -104.70585 35882 ft 425 kts 314°
2026-04-23 21:58 39.85819 -104.75455 35881 ft 425 kts 314°
2026-04-23 21:59 39.90383 -104.80326 35882 ft 424 kts 314°
2026-04-23 21:59 39.94946 -104.85199 35880 ft 424 kts 314°
2026-04-23 22:00 40.01771 -104.92521 35865 ft 424 kts 314°
2026-04-23 22:00 40.06335 -104.97424 35842 ft 426 kts 315°
2026-04-23 22:01 40.10916 -105.02352 35840 ft 428 kts 315°
2026-04-23 22:01 40.15513 -105.07305 35842 ft 429 kts 315°
2026-04-23 22:02 40.20128 -105.12276 35846 ft 429 kts 315°
2026-04-23 22:02 40.24732 -105.17257 35862 ft 429 kts 315°
2026-04-23 22:03 40.29343 -105.22248 35864 ft 429 kts 315°
2026-04-23 22:03 40.33944 -105.27236 35863 ft 430 kts 315°
2026-04-23 22:04 40.38539 -105.32249 35884 ft 430 kts 315°
2026-04-23 22:04 40.43146 -105.37270 35894 ft 430 kts 315°
2026-04-23 22:05 40.47745 -105.42287 35901 ft 430 kts 315°
2026-04-23 22:05 40.52333 -105.47315 35909 ft 429 kts 315°
2026-04-23 22:06 40.56900 -105.52310 35912 ft 429 kts 315°
2026-04-23 22:06 40.61489 -105.57345 35911 ft 429 kts 315°
2026-04-23 22:07 40.66076 -105.62391 35927 ft 429 kts 315°
2026-04-23 22:07 40.70658 -105.67440 35933 ft 430 kts 315°
2026-04-23 22:08 40.75236 -105.72507 35942 ft 430 kts 315°
2026-04-23 22:08 40.79823 -105.77582 35944 ft 430 kts 315°
2026-04-23 22:09 40.84419 -105.82672 35946 ft 431 kts 315°
2026-04-23 22:09 40.88978 -105.87736 35954 ft 431 kts 315°
2026-04-23 22:10 40.93577 -105.92841 35955 ft 431 kts 316°
2026-04-23 22:10 40.98167 -105.97949 35956 ft 432 kts 316°
2026-04-23 22:11 41.02786 -106.03044 35966 ft 432 kts 317°
2026-04-23 22:11 41.07507 -106.07977 35972 ft 432 kts 318°
2026-04-23 22:12 41.12242 -106.12877 35974 ft 432 kts 318°
2026-04-23 22:12 41.16950 -106.17831 35972 ft 432 kts 317°
2026-04-23 22:13 41.21644 -106.22812 35969 ft 432 kts 317°
2026-04-23 22:13 41.26334 -106.27804 35967 ft 432 kts 317°
2026-04-23 22:14 41.31032 -106.32804 35964 ft 433 kts 318°
2026-04-23 22:14 41.35735 -106.37805 35969 ft 433 kts 318°
2026-04-23 22:15 41.39650 -106.41966 35971 ft 433 kts 318°
2026-04-23 22:15 41.44352 -106.46975 35971 ft 433 kts 318°
2026-04-23 22:16 41.49810 -106.52819 35971 ft 433 kts 318°
2026-04-23 22:16 41.53745 -106.57044 35972 ft 433 kts 317°
2026-04-23 22:17 41.58442 -106.62094 35975 ft 433 kts 318°
2026-04-23 22:17 41.63114 -106.67111 35979 ft 433 kts 318°
2026-04-23 22:18 41.67809 -106.72165 35974 ft 433 kts 317°
2026-04-23 22:18 41.72497 -106.77232 35974 ft 433 kts 318°
2026-04-23 22:19 41.77182 -106.82300 35970 ft 433 kts 317°
2026-04-23 22:19 41.81863 -106.87378 35961 ft 432 kts 317°
2026-04-23 22:20 41.86539 -106.92462 35954 ft 432 kts 317°
2026-04-23 22:20 41.91205 -106.97541 35949 ft 432 kts 317°
2026-04-23 22:21 41.95865 -107.02622 35942 ft 431 kts 317°
2026-04-23 22:21 42.00521 -107.07699 35937 ft 430 kts 317°
2026-04-23 22:22 42.05164 -107.12794 35928 ft 431 kts 317°
2026-04-23 22:22 42.09785 -107.17867 35925 ft 431 kts 317°
2026-04-23 22:23 42.14438 -107.22983 35919 ft 432 kts 317°
2026-04-23 22:23 42.19090 -107.28104 35921 ft 431 kts 317°
2026-04-23 22:24 42.23724 -107.33228 35917 ft 431 kts 317°
2026-04-23 22:24 42.28357 -107.38347 35916 ft 430 kts 317°
2026-04-23 22:25 42.32984 -107.43463 35910 ft 429 kts 317°
2026-04-23 22:25 42.37602 -107.48581 35902 ft 429 kts 317°
2026-04-23 22:26 42.42205 -107.53708 35895 ft 429 kts 317°
2026-04-23 22:26 42.46809 -107.58837 35886 ft 428 kts 317°
2026-04-23 22:27 42.51411 -107.63967 35871 ft 428 kts 317°
2026-04-23 22:27 42.55980 -107.69074 35866 ft 428 kts 316°
2026-04-23 22:28 42.60572 -107.74221 35860 ft 428 kts 316°
2026-04-23 22:28 42.65155 -107.79381 35855 ft 428 kts 316°
2026-04-23 22:29 42.69739 -107.84544 35848 ft 428 kts 316°
2026-04-23 22:29 42.74324 -107.89720 35842 ft 429 kts 316°
2026-04-23 22:30 42.78912 -107.94898 35834 ft 429 kts 316°
2026-04-23 22:30 42.83498 -108.00088 35825 ft 429 kts 316°
2026-04-23 22:31 42.88083 -108.05286 35818 ft 428 kts 316°
2026-04-23 22:31 42.92660 -108.10490 35814 ft 428 kts 315°
2026-04-23 22:32 42.97224 -108.15694 35802 ft 427 kts 315°
2026-04-23 22:32 43.01745 -108.20957 35798 ft 427 kts 314°
2026-04-23 22:33 43.06218 -108.26220 35797 ft 427 kts 314°
2026-04-23 22:33 43.10722 -108.31520 35789 ft 427 kts 314°
2026-04-23 22:34 43.15239 -108.36826 35786 ft 427 kts 314°
2026-04-23 22:34 43.19749 -108.42137 35783 ft 427 kts 314°
2026-04-23 22:35 43.24257 -108.47460 35780 ft 428 kts 314°
2026-04-23 22:35 43.28769 -108.52792 35787 ft 428 kts 314°
2026-04-23 22:36 43.33285 -108.58132 35791 ft 428 kts 314°
2026-04-23 22:36 43.37787 -108.63483 35793 ft 428 kts 314°
2026-04-23 22:37 43.42286 -108.68837 35799 ft 428 kts 314°
2026-04-23 22:37 43.46761 -108.74167 35799 ft 428 kts 314°
2026-04-23 22:38 43.51261 -108.79537 35803 ft 428 kts 314°
2026-04-23 22:38 43.55755 -108.84921 35809 ft 428 kts 314°
2026-04-23 22:39 43.60248 -108.90313 35817 ft 428 kts 313°
2026-04-23 22:39 43.64746 -108.95714 35819 ft 428 kts 314°
2026-04-23 22:40 43.69240 -109.01123 35822 ft 428 kts 313°
2026-04-23 22:41 43.75967 -109.09258 35823 ft 429 kts 313°
2026-04-23 22:41 43.80455 -109.14698 35834 ft 429 kts 313°
2026-04-23 22:42 43.84920 -109.20114 35842 ft 429 kts 313°
2026-04-23 22:42 43.89407 -109.25556 35844 ft 429 kts 313°
2026-04-23 22:43 43.93904 -109.31010 35842 ft 429 kts 313°
2026-04-23 22:43 43.98393 -109.36489 35852 ft 430 kts 313°
2026-04-23 22:44 44.02877 -109.41980 35851 ft 430 kts 313°
2026-04-23 22:44 44.07369 -109.47494 35844 ft 431 kts 313°
2026-04-23 22:45 44.11868 -109.53019 35843 ft 432 kts 313°
2026-04-23 22:45 44.16367 -109.58557 35853 ft 432 kts 313°
2026-04-23 22:46 44.20860 -109.64106 35854 ft 432 kts 313°
2026-04-23 22:46 44.25354 -109.69662 35868 ft 432 kts 313°
2026-04-23 22:47 44.29843 -109.75237 35868 ft 432 kts 313°
2026-04-23 22:47 44.34311 -109.80838 35885 ft 432 kts 312°
2026-04-23 22:48 44.38750 -109.86488 35885 ft 432 kts 312°
2026-04-23 22:48 44.43178 -109.92156 35869 ft 432 kts 312°
2026-04-23 22:49 44.47616 -109.97823 35874 ft 432 kts 312°
2026-04-23 22:49 44.52057 -110.03479 35872 ft 431 kts 312°
2026-04-23 22:50 44.56486 -110.09153 35870 ft 431 kts 312°
2026-04-23 22:50 44.60908 -110.14834 35863 ft 431 kts 312°
2026-04-23 22:51 44.65325 -110.20521 35862 ft 431 kts 312°
2026-04-23 22:51 44.69714 -110.26178 35859 ft 431 kts 312°
2026-04-23 22:52 44.74134 -110.31883 35863 ft 431 kts 312°
2026-04-23 22:52 44.78553 -110.37598 35870 ft 432 kts 312°
2026-04-23 22:53 44.82971 -110.43330 35871 ft 432 kts 312°
2026-04-23 22:53 44.87384 -110.49072 35869 ft 432 kts 312°
2026-04-23 22:54 44.91799 -110.54827 35887 ft 432 kts 312°
2026-04-23 22:54 44.96204 -110.60607 35889 ft 432 kts 312°
2026-04-23 22:55 45.00613 -110.66385 35897 ft 433 kts 312°
2026-04-23 22:55 45.05033 -110.72177 35908 ft 433 kts 312°
2026-04-23 22:56 45.09451 -110.77976 35919 ft 433 kts 312°
2026-04-23 22:56 45.13860 -110.83782 35916 ft 433 kts 312°
2026-04-23 22:57 45.18235 -110.89566 35927 ft 433 kts 312°
2026-04-23 22:57 45.22635 -110.95398 35932 ft 433 kts 312°
2026-04-23 22:58 45.27037 -111.01243 35935 ft 433 kts 313°
2026-04-23 22:58 45.31431 -111.07084 35936 ft 432 kts 313°
2026-04-23 22:59 45.35818 -111.12940 35955 ft 433 kts 312°
2026-04-23 22:59 45.40210 -111.18797 35957 ft 433 kts 312°
2026-04-23 23:00 45.44594 -111.24666 35968 ft 433 kts 312°
2026-04-23 23:00 45.48974 -111.30539 35967 ft 432 kts 313°
2026-04-23 23:01 45.53353 -111.36422 35972 ft 433 kts 313°
2026-04-23 23:01 45.57733 -111.42317 35974 ft 433 kts 312°
2026-04-23 23:02 45.62107 -111.48225 35977 ft 433 kts 312°
2026-04-23 23:02 45.66474 -111.54152 35973 ft 433 kts 312°
2026-04-23 23:03 45.70837 -111.60083 35973 ft 433 kts 312°
2026-04-23 23:03 45.75205 -111.66029 35975 ft 433 kts 312°
2026-04-23 23:04 45.79572 -111.71978 35972 ft 433 kts 312°
2026-04-23 23:04 45.83911 -111.77897 35971 ft 434 kts 312°
2026-04-23 23:05 45.88275 -111.83876 35972 ft 434 kts 312°
2026-04-23 23:05 45.92638 -111.89866 35977 ft 434 kts 312°
2026-04-23 23:06 45.97003 -111.95882 35981 ft 434 kts 312°
2026-04-23 23:06 46.01393 -112.01862 35985 ft 435 kts 314°
2026-04-23 23:07 46.06031 -112.07503 35992 ft 438 kts 317°
2026-04-23 23:07 46.09981 -112.12067 35993 ft 438 kts 317°
2026-04-23 23:08 46.15460 -112.18507 35993 ft 437 kts 316°
2026-04-23 23:08 46.20124 -112.24125 35993 ft 437 kts 316°
2026-04-23 23:09 46.24018 -112.28853 35993 ft 437 kts 316°
2026-04-23 23:09 46.28673 -112.34505 35991 ft 437 kts 316°
2026-04-23 23:10 46.33332 -112.40157 35996 ft 437 kts 316°
2026-04-23 23:10 46.37985 -112.45818 35989 ft 437 kts 316°
2026-04-23 23:11 46.42609 -112.51453 35986 ft 437 kts 316°
2026-04-23 23:11 46.47266 -112.57130 35990 ft 437 kts 316°
2026-04-23 23:12 46.51914 -112.62823 35992 ft 438 kts 316°
2026-04-23 23:12 46.56564 -112.68539 36000 ft 438 kts 317°
2026-04-23 23:13 46.61220 -112.74265 35999 ft 438 kts 317°
2026-04-23 23:13 46.65869 -112.80002 35998 ft 439 kts 317°
2026-04-23 23:14 46.70521 -112.85765 36000 ft 439 kts 317°
2026-04-23 23:14 46.75178 -112.91536 36007 ft 439 kts 317°
2026-04-23 23:15 46.79836 -112.97325 36007 ft 438 kts 317°
2026-04-23 23:15 46.84457 -113.03070 36012 ft 439 kts 317°
2026-04-23 23:16 46.89111 -113.08854 36020 ft 439 kts 317°
2026-04-23 23:16 46.93766 -113.14660 36019 ft 439 kts 317°
2026-04-23 23:16 46.96085 -113.17573 35833 ft 440 kts 317°
2026-04-23 23:17 46.98403 -113.20487 35585 ft 439 kts 317°
2026-04-23 23:17 47.00719 -113.23404 35334 ft 438 kts 317°
2026-04-23 23:17 47.03031 -113.26320 35079 ft 438 kts 317°
2026-04-23 23:17 47.05341 -113.29233 34581 ft 439 kts 317°
2026-04-23 23:18 47.07667 -113.32167 33691 ft 444 kts 317°
2026-04-23 23:18 47.10017 -113.35130 32779 ft 446 kts 317°
2026-04-23 23:18 47.12326 -113.38040 31866 ft 441 kts 317°
2026-04-23 23:18 47.14640 -113.40958 31007 ft 435 kts 317°
2026-04-23 23:19 47.16923 -113.43842 30078 ft 434 kts 317°
2026-04-23 23:19 47.19218 -113.46755 29269 ft 436 kts 316°
2026-04-23 23:19 47.21489 -113.49640 28742 ft 429 kts 317°
2026-04-23 23:19 47.23746 -113.52505 28135 ft 426 kts 317°
2026-04-23 23:20 47.25978 -113.55347 27536 ft 422 kts 317°
2026-04-23 23:20 47.28187 -113.58165 26948 ft 418 kts 317°
2026-04-23 23:20 47.30375 -113.60953 26374 ft 413 kts 317°
2026-04-23 23:20 47.32536 -113.63708 25817 ft 408 kts 317°
2026-04-23 23:21 47.34667 -113.66434 25242 ft 403 kts 317°
2026-04-23 23:21 47.36772 -113.69133 24690 ft 399 kts 317°
2026-04-23 23:21 47.38853 -113.71806 24144 ft 395 kts 317°
2026-04-23 23:21 47.40918 -113.74454 23604 ft 390 kts 317°
2026-04-23 23:22 47.42926 -113.77031 23100 ft 385 kts 317°
2026-04-23 23:22 47.44933 -113.79607 22596 ft 379 kts 317°
2026-04-23 23:22 47.46905 -113.82138 22132 ft 373 kts 317°
2026-04-23 23:22 47.48847 -113.84635 21674 ft 367 kts 317°
2026-04-23 23:23 47.50760 -113.87099 21246 ft 361 kts 317°
2026-04-23 23:23 47.52631 -113.89515 20823 ft 354 kts 316°
2026-04-23 23:23 47.54474 -113.91899 20414 ft 349 kts 316°
2026-04-23 23:23 47.56289 -113.94252 20014 ft 344 kts 316°
2026-04-23 23:24 47.58077 -113.96571 19625 ft 341 kts 316°
2026-04-23 23:24 47.59857 -113.98876 19236 ft 340 kts 316°
2026-04-23 23:24 47.61637 -114.01181 18849 ft 338 kts 316°
2026-04-23 23:24 47.63395 -114.03462 18445 ft 336 kts 316°
2026-04-23 23:25 47.65150 -114.05743 18041 ft 334 kts 316°
2026-04-23 23:25 47.66889 -114.08004 17635 ft 332 kts 316°
2026-04-23 23:25 47.68598 -114.10228 17217 ft 330 kts 316°
2026-04-23 23:25 47.70332 -114.12514 16813 ft 328 kts 314°
2026-04-23 23:26 47.71817 -114.15052 16365 ft 325 kts 304°
2026-04-23 23:26 47.72990 -114.17900 15921 ft 323 kts 298°
2026-04-23 23:26 47.74073 -114.20761 15505 ft 322 kts 299°
2026-04-23 23:26 47.75176 -114.23645 15070 ft 320 kts 300°
2026-04-23 23:27 47.76278 -114.26515 14641 ft 319 kts 300°
2026-04-23 23:27 47.77376 -114.29377 14214 ft 318 kts 300°
2026-04-23 23:27 47.78465 -114.32222 13782 ft 316 kts 300°
2026-04-23 23:27 47.79549 -114.35056 13349 ft 315 kts 301°
2026-04-23 23:28 47.80632 -114.37888 12918 ft 314 kts 301°
2026-04-23 23:28 47.81704 -114.40706 12479 ft 313 kts 301°
2026-04-23 23:28 47.82770 -114.43521 12036 ft 311 kts 301°
2026-04-23 23:28 47.83829 -114.46321 11598 ft 310 kts 301°
2026-04-23 23:29 47.84941 -114.49048 11181 ft 307 kts 307°
2026-04-23 23:29 47.86313 -114.51470 10797 ft 306 kts 316°
2026-04-23 23:29 47.87913 -114.53504 10576 ft 297 kts 325°
2026-04-23 23:29 47.89629 -114.55089 10447 ft 285 kts 333°
2026-04-23 23:30 47.91432 -114.56244 10186 ft 279 kts 341°
2026-04-23 23:30 47.93303 -114.56974 9941 ft 277 kts 350°
2026-04-23 23:30 47.95192 -114.57282 9825 ft 278 kts 358°
2026-04-23 23:30 47.97126 -114.57178 9700 ft 278 kts
2026-04-23 23:31 47.99030 -114.56652 9579 ft 279 kts 14°
2026-04-23 23:31 48.00862 -114.55717 9464 ft 278 kts 22°
2026-04-23 23:31 48.02546 -114.54418 9323 ft 267 kts 30°
2026-04-23 23:31 48.04131 -114.53035 9037 ft 262 kts 29°
2026-04-23 23:32 48.05701 -114.51682 8696 ft 260 kts 29°
2026-04-23 23:32 48.07249 -114.50314 8350 ft 258 kts 31°
2026-04-23 23:32 48.08744 -114.48836 8007 ft 256 kts 33°
2026-04-23 23:32 48.10202 -114.47319 7658 ft 255 kts 34°
2026-04-23 23:33 48.11627 -114.45817 7315 ft 244 kts 34°
2026-04-23 23:33 48.12969 -114.44401 7001 ft 229 kts 34°
2026-04-23 23:33 48.14243 -114.43061 6713 ft 218 kts 34°
2026-04-23 23:33 48.15446 -114.41798 6425 ft 205 kts 33°
2026-04-23 23:34 48.16595 -114.40602 6165 ft 198 kts 33°
2026-04-23 23:34 48.17697 -114.39456 5917 ft 187 kts 34°
2026-04-23 23:34 48.18751 -114.38365 5655 ft 181 kts 33°
2026-04-23 23:34 48.19774 -114.37303 5407 ft 175 kts 33°
2026-04-23 23:35 48.20752 -114.36288 5208 ft 169 kts 34°
2026-04-23 23:35 48.21684 -114.35319 4977 ft 155 kts 34°
2026-04-23 23:35 48.22554 -114.34414 4762 ft 149 kts 33°
2026-04-23 23:35 48.23390 -114.33543 4561 ft 147 kts 33°
2026-04-23 23:36 48.24227 -114.32671 4361 ft 146 kts 34°
2026-04-23 23:36 48.25064 -114.31801 4168 ft 146 kts 33°
2026-04-23 23:36 48.25899 -114.30930 3972 ft 146 kts 34°
2026-04-23 23:36 48.26732 -114.30061 3775 ft 145 kts 34°
2026-04-23 23:37 48.27561 -114.29199 3564 ft 145 kts 34°
2026-04-23 23:37 48.28383 -114.28329 3387 ft 145 kts 36°
2026-04-23 23:37 48.29198 -114.27446 3172 ft 144 kts 33°
2026-04-23 23:37 48.30033 -114.26605 2981 ft 144 kts 36°
2026-04-23 23:38 48.30679 -114.25932 2974 ft 71 kts 36°
2026-04-23 23:38 48.31006 -114.25592 2972 ft 51 kts 34°
2026-04-23 23:38 48.31158 -114.25439 2974 ft 15 kts 37°
2026-04-23 23:38 48.31197 -114.25310 2975 ft 13 kts 86°
2026-04-23 23:39 48.31197 -114.25278 2975 ft 0 kts 91°
2026-04-23 23:39 48.31197 -114.25255 2975 ft 4 kts 91°
2026-04-23 23:40 48.31193 -114.25225 2975 ft 2 kts 116°
2026-04-23 23:40 48.31172 -114.25222 2975 ft 7 kts 188°
2026-04-23 23:40 48.31101 -114.25289 2975 ft 13 kts 216°